User: anonymous   Login
Location: Boca do Mato
(22.9085°S, 43.2930°W)
Time: 19:04:41
(UTC+00:00)
Language:

Cosmos 2227 Rocket - Orbit

View from above orbital plane
View from above orbital plane
View from above satellite
View from above satellite

Ground track
Ground track

The orbit data is extracted from the following two-line orbital elements,

1 22285U 92093B   20270.10505081  .00000027  00000-0  38460-4 0  9997
2 22285  71.0218 221.3561 0002006 114.3531 245.7802 14.15051031431856
Epoch (UTC): 26 September 2020 02:31:16
Eccentricity: 0.0002006
inclination: 71.0218°
perigee height: 840 km
apogee height: 843 km
right ascension of ascending node: 221.3561°
argument of perigee: 114.3531°
revolutions per day: 14.15051031
mean anomaly at epoch: 245.7802°
orbit number at epoch: 43185

The dashed part of the orbit path shows where the satellite is in the earth's shadow,  

DLR